This is the latest recevied weather packets stored in our database for station/object KD9ZDW. If no packets are shown the sender has not sent any weather packets the latest 10 day(s).
| Time | Temp. | Humidity | Pressure | Rain* | Wind** | Luminosity | Snow |
|---|---|---|---|---|---|---|---|
| 1778121750 | 10° C | 62% | 1016.2 hPa | 0 mm | - | 0 W/m² | - |
| 1778121446 | 10.56° C | 59% | 1016.1 hPa | 0 mm | - | 0 W/m² | - |
| 1778121143 | 10° C | 60% | 1016.1 hPa | 0 mm | - | 0 W/m² | - |
| 1778120840 | 10.56° C | 61% | 1016.3 hPa | 0 mm | - | 0 W/m² | - |
| 1778120536 | 10.56° C | 60% | 1016.2 hPa | 0 mm | - | 0 W/m² | - |
| 1778120232 | 10.56° C | 58% | 1016.1 hPa | 0 mm | - | 0 W/m² | - |
| 1778119928 | 10.56° C | 58% | 1016 hPa | 0 mm | - | 0 W/m² | - |
| 1778119627 | 10.56° C | 60% | 1016.2 hPa | 0 mm | - | 0 W/m² | - |
| 1778119322 | 10.56° C | 58% | 1016 hPa | 0 mm | - | 0 W/m² | - |
| 1778119020 | 11.11° C | 57% | 1016.1 hPa | 0 mm | - | 0 W/m² | - |
| 1778118717 | 11.11° C | 55% | 1015.9 hPa | 0 mm | - | 0 W/m² | - |
| 1778118414 | 11.11° C | 54% | 1016 hPa | 0 mm | - | 0 W/m² | - |
| 1778118110 | 11.11° C | 56% | 1016 hPa | 0 mm | - | 0 W/m² | - |
| 1778117807 | 11.11° C | 53% | 1016 hPa | 0 mm | - | 0 W/m² | - |
| 1778117504 | 11.11° C | 53% | 1015.8 hPa | 0 mm | - | 0 W/m² | - |
| 1778117202 | 11.11° C | 51% | 1015.8 hPa | 0 mm | - | 0 W/m² | - |
| 1778116897 | 11.11° C | 53% | 1015.6 hPa | 0 mm | - | 0 W/m² | - |
| 1778116595 | 11.11° C | 54% | 1015.6 hPa | 0 mm | - | 0 W/m² | - |
| 1778116291 | 10.56° C | 61% | 1015.7 hPa | 0 mm | - | 0 W/m² | - |
| 1778115986 | 10.56° C | 57% | 1015.7 hPa | 0 mm | - | 0 W/m² | - |
| 1778115682 | 10.56° C | 59% | 1015.6 hPa | 0 mm | - | 0 W/m² | - |
| 1778115380 | 10.56° C | 59% | 1015.4 hPa | 0 mm | - | 0 W/m² | - |
| 1778115076 | 11.11° C | 59% | 1015.4 hPa | 0 mm | - | 1 W/m² | - |
| 1778114773 | 11.11° C | 56% | 1015.4 hPa | 0 mm | - | 1 W/m² | - |
| 1778114470 | 11.67° C | 50% | 1015.3 hPa | 0 mm | - | 2 W/m² | - |
* Rain latest hour (hover to see other rain measurements)
** Current wind speed in m/s (hover to see current wind gust speed)